Printer-friendly version

IAU Minor Planet Center

Minor Planet Center

MPEC 2007-X32 : 2007 XD10

The following Minor Planet Electronic Circular may be linked-to from your own Web pages, but must not otherwise be redistributed electronically.


Read MPEC 2007-X31 Read MPEC 2007-X33


M.P.E.C. 2007-X32                                Issued 2007 Dec. 6, 18:21 UT

     The Minor Planet Electronic Circulars contain information on unusual
         minor planets and routine data on comets.  They are published
   on behalf of Commission 20 of the International Astronomical Union by the
          Minor Planet Center, Smithsonian Astrophysical Observatory,
                          Cambridge, MA 02138, U.S.A.

             Prepared using the Tamkin Foundation Computer Network

                              MPC@CFA.HARVARD.EDU
          URL http://www.cfa.harvard.edu/iau/mpc.html  ISSN 1523-6714

                                   2007 XD10

Observations:
     K07X10D* C2007 12 05.44337 08 15 31.62 +25 29 45.0          20.5 V EX032691
     K07X10D  C2007 12 05.46116 08 15 26.38 +25 29 15.6          20.1 V EX032691
     K07X10D  C2007 12 05.47882 08 15 21.15 +25 28 44.4          20.7 V EX032691
     K07X10D tC2007 12 05.52084 08 15 08.73 +25 27 32.3                 EX032291
     K07X10D tC2007 12 05.52489 08 15 07.60 +25 27 25.1                 EX032291
     K07X10D tC2007 12 05.52886 08 15 06.36 +25 27 18.4                 EX032291
     K07X10D HC2007 12 06.31874 08 11 22.14 +25 04 46.1                 EX032691
     K07X10D HC2007 12 06.32171 08 11 21.27 +25 04 41.0                 EX032691

Observer details:
291 LPL/Spacewatch II.  Observer T. H. Bressi.  1.8-m f/2.7 reflector + CCD.
691 Steward Observatory, Kitt Peak.  Observers T. H. Bressi, R. S. McMillan.
    Measurer R. S. McMillan.  0.9-m f/3 reflector + CCD.

Orbital elements:
2007 XD10                                                Earth MOID = 0.0660 AU
Epoch 2007 Dec. 6.0 TT = JDT 2454440.5                  MPC
M  40.50337              (2000.0)            P               Q
n   0.50602048     Peri.   69.72480     +0.88624430     +0.32800690
a   1.5596386      Node   269.96715     -0.44044521     +0.81537608
e   0.5544537      Incl.   19.09175     +0.14345404     +0.47704646
P   1.95           H   20.6           G   0.15
From 8 observations 2007 Dec. 5-6.

Ephemeris:
2007 XD10                a,e,i = 1.56, 0.55, 19                  q = 0.6949
Date    TT    R. A. (2000) Decl.     Delta      r     Elong.  Phase     V
2007 12 06    08 12.87   +25 14.0    0.372    1.270   133.3    34.4    20.4
2007 12 16    07 26.61   +20 29.6    0.404    1.357   153.3    19.0    20.3
2007 12 26    06 47.29   +16 17.8    0.462    1.441   169.8     6.9    20.2
2008 01 05    06 18.36   +13 11.2    0.548    1.521   166.2     8.9    20.8
2008 01 15    05 59.79   +11 12.9    0.657    1.597   153.1    16.2    21.6

Timothy B. Spahr             (C) Copyright 2007 MPC           M.P.E.C. 2007-X32

Read MPEC 2007-X31 Read MPEC 2007-X33


Our Web policy. Index to the CBAT/MPC/ICQ pages.


Valid HTML 4.01!